Location: Atherton
(17.2661°S, 145.4859°E)
Time: 20:07:21
(UTC+10:00)

Hubble Space Telescope - Pass Details

Date: 08 February 2026
Orbit: 476 x 479 km, 28.5° (Epoch: 10 March)

Event Time Altitude Azimuth Distance (km) Brightness Sun altitude
Rises 19:53:13 0° 322° (NW) 2,501 4.4 -14.1°
Reaches altitude 10° 19:55:45 10° 338° (NNW) 1,628 3.2 -14.6°
Enters shadow 19:58:32 21° 26° (NNE) 1,095 1.9 -15.2°
